Time,TemperatureF,DewpointF,PressureIn,WindDirection,WindDirectionDegrees,WindSpeedMPH,WindSpeedGustMPH,Humidity,HourlyPrecipIn,Conditions,Clouds,dailyrainin,SoftwareType,DateUTC
2013-02-16 00:00:00,0.0,0.0,29.94,North,350,2.0,4.0,0,0.00,,,0.00,VWS V14.01,2013-02-16 05:00:00,
2013-02-16 00:04:00,0.0,0.0,29.94,North,350,2.0,4.0,0,0.00,,,0.00,VWS V14.01,2013-02-16 05:04:00,
2013-02-16 00:10:00,0.0,0.0,29.95,North,350,1.0,4.0,0,0.00,,,0.00,VWS V14.01,2013-02-16 05:10:00,
2013-02-16 00:14:00,0.0,0.0,29.95,North,350,1.0,4.0,0,0.00,,,0.00,VWS V14.01,2013-02-16 05:14:00,
2013-02-16 00:20:00,0.0,0.0,29.94,North,350,0.0,4.0,0,0.00,,,0.00,VWS V14.01,2013-02-16 05:20:00,
2013-02-16 00:24:00,0.0,0.0,29.94,North,350,0.0,4.0,0,0.00,,,0.00,VWS V14.01,2013-02-16 05:24:00,
2013-02-16 00:30:00,0.0,0.0,29.94,North,350,2.0,3.0,0,0.00,,,0.00,VWS V14.01,2013-02-16 05:30:00,
2013-02-16 00:34:00,0.0,0.0,29.94,North,350,2.0,3.0,0,0.00,,,0.00,VWS V14.01,2013-02-16 05:34:00,
2013-02-16 00:40:00,0.0,0.0,29.94,North,350,3.0,3.0,0,0.00,,,0.00,VWS V14.01,2013-02-16 05:40:00,
2013-02-16 00:44:00,0.0,0.0,29.94,North,350,3.0,3.0,0,0.00,,,0.00,VWS V14.01,2013-02-16 05:44:00,
2013-02-16 00:50:00,0.0,0.0,29.95,North,350,2.0,3.0,0,0.00,,,0.00,VWS V14.01,2013-02-16 05:50:00,
2013-02-16 00:54:00,0.0,0.0,29.95,North,350,2.0,3.0,0,0.00,,,0.00,VWS V14.01,2013-02-16 05:54:00,
2013-02-16 01:00:00,0.0,0.0,29.94,North,350,0.0,4.0,0,0.00,,,0.00,VWS V14.01,2013-02-16 06:00:00,
2013-02-16 01:04:00,0.0,0.0,29.94,North,350,0.0,4.0,0,0.00,,,0.00,VWS V14.01,2013-02-16 06:04:00,
2013-02-16 01:10:00,0.0,0.0,29.94,North,350,0.0,2.0,0,0.00,,,0.00,VWS V14.01,2013-02-16 06:10:00,
2013-02-16 01:14:00,0.0,0.0,29.94,North,350,0.0,2.0,0,0.00,,,0.00,VWS V14.01,2013-02-16 06:14:00,
2013-02-16 01:20:00,0.0,0.0,29.94,North,350,0.0,0.0,0,0.00,,,0.00,VWS V14.01,2013-02-16 06:20:00,
2013-02-16 01:24:00,0.0,0.0,29.94,North,350,0.0,0.0,0,0.00,,,0.00,VWS V14.01,2013-02-16 06:24:00,
2013-02-16 01:30:00,0.0,0.0,29.94,North,350,0.0,0.0,0,0.00,,,0.00,VWS V14.01,2013-02-16 06:30:00,
2013-02-16 01:34:00,0.0,0.0,29.94,North,350,0.0,0.0,0,0.00,,,0.00,VWS V14.01,2013-02-16 06:34:00,
2013-02-16 01:40:00,0.0,0.0,29.93,North,350,0.0,4.0,0,0.00,,,0.00,VWS V14.01,2013-02-16 06:40:00,
2013-02-16 01:44:00,0.0,0.0,29.93,North,350,0.0,4.0,0,0.00,,,0.00,VWS V14.01,2013-02-16 06:44:00,
2013-02-16 01:50:00,0.0,0.0,29.92,North,350,1.0,5.0,0,0.00,,,0.00,VWS V14.01,2013-02-16 06:50:00,
2013-02-16 01:54:00,0.0,0.0,29.92,North,350,1.0,5.0,0,0.00,,,0.00,VWS V14.01,2013-02-16 06:54:00,
2013-02-16 02:00:00,0.0,0.0,29.93,North,350,0.0,3.0,0,0.00,,,0.00,VWS V14.01,2013-02-16 07:00:00,
2013-02-16 02:04:00,0.0,0.0,29.93,North,350,0.0,3.0,0,0.00,,,0.00,VWS V14.01,2013-02-16 07:04:00,
2013-02-16 02:10:00,0.0,0.0,29.92,North,350,2.0,4.0,0,0.00,,,0.00,VWS V14.01,2013-02-16 07:10:00,
2013-02-16 02:14:00,0.0,0.0,29.92,North,350,2.0,4.0,0,0.00,,,0.00,VWS V14.01,2013-02-16 07:14:00,
2013-02-16 02:20:00,0.0,0.0,29.93,North,350,0.0,3.0,0,0.00,,,0.00,VWS V14.01,2013-02-16 07:20:00,
2013-02-16 02:24:00,0.0,0.0,29.93,North,350,0.0,3.0,0,0.00,,,0.00,VWS V14.01,2013-02-16 07:24:00,
2013-02-16 02:30:00,0.0,0.0,29.92,North,350,1.0,3.0,0,0.00,,,0.00,VWS V14.01,2013-02-16 07:30:00,
2013-02-16 02:34:00,0.0,0.0,29.92,North,350,1.0,3.0,0,0.00,,,0.00,VWS V14.01,2013-02-16 07:34:00,
2013-02-16 02:40:00,0.0,0.0,29.92,North,350,2.0,4.0,0,0.00,,,0.00,VWS V14.01,2013-02-16 07:40:00,
2013-02-16 02:44:00,0.0,0.0,29.92,North,350,2.0,4.0,0,0.00,,,0.00,VWS V14.01,2013-02-16 07:44:00,
2013-02-16 02:50:00,0.0,0.0,29.92,North,350,0.0,4.0,0,0.00,,,0.00,VWS V14.01,2013-02-16 07:50:00,
2013-02-16 02:54:00,0.0,0.0,29.92,North,350,0.0,4.0,0,0.00,,,0.00,VWS V14.01,2013-02-16 07:54:00,
2013-02-16 03:00:00,0.0,0.0,29.92,North,350,0.0,4.0,0,0.00,,,0.00,VWS V14.01,2013-02-16 08:00:00,
2013-02-16 03:04:00,0.0,0.0,29.92,North,350,0.0,4.0,0,0.00,,,0.00,VWS V14.01,2013-02-16 08:04:00,
2013-02-16 03:10:00,0.0,0.0,29.91,North,350,2.0,3.0,0,0.00,,,0.00,VWS V14.01,2013-02-16 08:10:00,
2013-02-16 03:14:00,0.0,0.0,29.91,North,350,2.0,3.0,0,0.00,,,0.00,VWS V14.01,2013-02-16 08:14:00,
2013-02-16 03:20:00,0.0,0.0,29.91,North,350,1.0,3.0,0,0.00,,,0.00,VWS V14.01,2013-02-16 08:20:00,
2013-02-16 03:24:00,0.0,0.0,29.91,North,350,1.0,3.0,0,0.00,,,0.00,VWS V14.01,2013-02-16 08:24:00,
2013-02-16 03:30:00,0.0,0.0,29.90,North,350,3.0,5.0,0,0.00,,,0.00,VWS V14.01,2013-02-16 08:30:00,
2013-02-16 03:34:00,0.0,0.0,29.90,North,350,3.0,5.0,0,0.00,,,0.00,VWS V14.01,2013-02-16 08:34:00,
2013-02-16 03:40:00,0.0,0.0,29.91,North,350,1.0,4.0,0,0.00,,,0.00,VWS V14.01,2013-02-16 08:40:00,
2013-02-16 03:44:00,0.0,0.0,29.91,North,350,1.0,4.0,0,0.00,,,0.00,VWS V14.01,2013-02-16 08:44:00,
2013-02-16 03:50:00,0.0,0.0,29.92,North,350,0.0,3.0,0,0.00,,,0.00,VWS V14.01,2013-02-16 08:50:00,
2013-02-16 03:54:00,0.0,0.0,29.92,North,350,0.0,3.0,0,0.00,,,0.00,VWS V14.01,2013-02-16 08:54:00,
2013-02-16 04:00:00,0.0,0.0,29.92,North,350,3.0,4.0,0,0.00,,,0.00,VWS V14.01,2013-02-16 09:00:00,
2013-02-16 04:04:00,0.0,0.0,29.92,North,350,3.0,4.0,0,0.00,,,0.00,VWS V14.01,2013-02-16 09:04:00,
2013-02-16 04:10:00,0.0,0.0,29.91,North,350,3.0,4.0,0,0.00,,,0.00,VWS V14.01,2013-02-16 09:10:00,
2013-02-16 04:14:00,0.0,0.0,29.91,North,350,3.0,4.0,0,0.00,,,0.00,VWS V14.01,2013-02-16 09:14:00,
2013-02-16 04:20:00,0.0,0.0,29.91,North,350,3.0,5.0,0,0.00,,,0.00,VWS V14.01,2013-02-16 09:20:00,
2013-02-16 04:24:00,0.0,0.0,29.91,North,350,3.0,5.0,0,0.00,,,0.00,VWS V14.01,2013-02-16 09:24:00,
2013-02-16 04:30:00,0.0,0.0,29.91,North,350,4.0,6.0,0,0.00,,,0.00,VWS V14.01,2013-02-16 09:30:00,
2013-02-16 04:34:00,0.0,0.0,29.91,North,350,4.0,6.0,0,0.00,,,0.00,VWS V14.01,2013-02-16 09:34:00,
2013-02-16 04:40:00,0.0,0.0,29.91,North,350,4.0,6.0,0,0.00,,,0.00,VWS V14.01,2013-02-16 09:40:00,
2013-02-16 04:44:00,0.0,0.0,29.91,North,350,4.0,6.0,0,0.00,,,0.00,VWS V14.01,2013-02-16 09:44:00,
2013-02-16 04:50:00,0.0,0.0,29.91,North,350,4.0,6.0,0,0.00,,,0.00,VWS V14.01,2013-02-16 09:50:00,
2013-02-16 04:54:00,0.0,0.0,29.91,North,350,4.0,6.0,0,0.00,,,0.00,VWS V14.01,2013-02-16 09:54:00,
2013-02-16 05:00:00,0.0,0.0,29.91,North,350,3.0,6.0,0,0.00,,,0.00,VWS V14.01,2013-02-16 10:00:00,
2013-02-16 05:04:00,0.0,0.0,29.91,North,350,3.0,6.0,0,0.00,,,0.00,VWS V14.01,2013-02-16 10:04:00,
2013-02-16 05:10:00,0.0,0.0,29.90,North,350,3.0,5.0,0,0.00,,,0.00,VWS V14.01,2013-02-16 10:10:00,
2013-02-16 05:14:00,0.0,0.0,29.90,North,350,3.0,5.0,0,0.00,,,0.00,VWS V14.01,2013-02-16 10:14:00,
2013-02-16 05:20:00,0.0,0.0,29.91,North,350,2.0,5.0,0,0.00,,,0.00,VWS V14.01,2013-02-16 10:20:00,
2013-02-16 05:24:00,0.0,0.0,29.91,North,350,2.0,5.0,0,0.00,,,0.00,VWS V14.01,2013-02-16 10:24:00,
2013-02-16 05:30:00,0.0,0.0,29.91,North,350,0.0,5.0,0,0.00,,,0.00,VWS V14.01,2013-02-16 10:30:00,
2013-02-16 05:34:00,0.0,0.0,29.91,North,350,0.0,5.0,0,0.00,,,0.00,VWS V14.01,2013-02-16 10:34:00,
2013-02-16 05:40:00,0.0,0.0,29.92,North,350,2.0,3.0,0,0.00,,,0.00,VWS V14.01,2013-02-16 10:40:00,
2013-02-16 05:44:00,0.0,0.0,29.92,North,350,2.0,3.0,0,0.00,,,0.00,VWS V14.01,2013-02-16 10:44:00,
2013-02-16 05:50:00,0.0,0.0,29.91,North,350,3.0,3.0,0,0.00,,,0.00,VWS V14.01,2013-02-16 10:50:00,
2013-02-16 05:54:00,0.0,0.0,29.91,North,350,3.0,3.0,0,0.00,,,0.00,VWS V14.01,2013-02-16 10:54:00,
2013-02-16 06:00:00,0.0,0.0,29.91,North,350,2.0,6.0,0,0.00,,,0.00,VWS V14.01,2013-02-16 11:00:00,
2013-02-16 06:04:00,0.0,0.0,29.91,North,350,2.0,6.0,0,0.00,,,0.00,VWS V14.01,2013-02-16 11:04:00,
2013-02-16 06:10:00,0.0,0.0,29.92,North,350,4.0,8.0,0,0.00,,,0.00,VWS V14.01,2013-02-16 11:10:00,
2013-02-16 06:14:00,0.0,0.0,29.92,North,350,4.0,8.0,0,0.00,,,0.00,VWS V14.01,2013-02-16 11:14:00,
2013-02-16 06:20:00,0.0,0.0,29.92,NNW,344,4.0,9.0,0,0.00,,,0.00,VWS V14.01,2013-02-16 11:20:00,
2013-02-16 06:24:00,0.0,0.0,29.92,NNW,344,4.0,9.0,0,0.00,,,0.00,VWS V14.01,2013-02-16 11:24:00,
2013-02-16 06:30:00,0.0,0.0,29.92,NNW,337,6.0,9.0,0,0.00,,,0.00,VWS V14.01,2013-02-16 11:30:00,
2013-02-16 06:34:00,0.0,0.0,29.92,NNW,337,6.0,9.0,0,0.00,,,0.00,VWS V14.01,2013-02-16 11:34:00,
2013-02-16 06:40:00,0.0,0.0,29.92,NNW,337,2.0,7.0,0,0.00,,,0.00,VWS V14.01,2013-02-16 11:40:00,
2013-02-16 06:44:00,0.0,0.0,29.92,NNW,337,2.0,7.0,0,0.00,,,0.00,VWS V14.01,2013-02-16 11:44:00,
2013-02-16 06:50:00,0.0,0.0,29.92,NNW,337,2.0,6.0,0,0.00,,,0.00,VWS V14.01,2013-02-16 11:50:00,
2013-02-16 06:54:00,0.0,0.0,29.92,NNW,337,2.0,6.0,0,0.00,,,0.00,VWS V14.01,2013-02-16 11:54:00,
2013-02-16 07:00:00,0.0,0.0,29.92,NNW,337,4.0,5.0,0,0.00,,,0.00,VWS V14.01,2013-02-16 12:00:00,
2013-02-16 07:04:00,0.0,0.0,29.92,NNW,337,4.0,5.0,0,0.00,,,0.00,VWS V14.01,2013-02-16 12:04:00,
2013-02-16 07:10:00,0.0,0.0,29.92,NNW,337,2.0,4.0,0,0.00,,,0.00,VWS V14.01,2013-02-16 12:10:00,
2013-02-16 07:14:00,0.0,0.0,29.92,NNW,337,2.0,4.0,0,0.00,,,0.00,VWS V14.01,2013-02-16 12:14:00,
2013-02-16 07:20:00,0.0,0.0,29.92,NNW,337,1.0,3.0,0,0.00,,,0.00,VWS V14.01,2013-02-16 12:20:00,
2013-02-16 07:24:00,0.0,0.0,29.92,NNW,337,1.0,3.0,0,0.00,,,0.00,VWS V14.01,2013-02-16 12:24:00,
2013-02-16 07:30:00,0.0,0.0,29.92,NNW,337,0.0,2.0,0,0.00,,,0.00,VWS V14.01,2013-02-16 12:30:00,
2013-02-16 07:34:00,0.0,0.0,29.92,NNW,337,0.0,2.0,0,0.00,,,0.00,VWS V14.01,2013-02-16 12:34:00,
2013-02-16 07:40:00,0.0,0.0,29.92,NNW,337,0.0,3.0,0,0.00,,,0.00,VWS V14.01,2013-02-16 12:40:00,
2013-02-16 07:44:00,0.0,0.0,29.92,NNW,337,0.0,3.0,0,0.00,,,0.00,VWS V14.01,2013-02-16 12:44:00,
2013-02-16 07:50:00,0.0,0.0,29.92,NNW,337,0.0,4.0,0,0.00,,,0.00,VWS V14.01,2013-02-16 12:50:00,
2013-02-16 07:54:00,0.0,0.0,29.92,NNW,337,0.0,4.0,0,0.00,,,0.00,VWS V14.01,2013-02-16 12:54:00,
2013-02-16 08:00:00,0.0,0.0,29.92,NNW,337,2.0,3.0,0,0.00,,,0.00,VWS V14.01,2013-02-16 13:00:00,
2013-02-16 08:04:00,0.0,0.0,29.92,NNW,337,2.0,3.0,0,0.00,,,0.00,VWS V14.01,2013-02-16 13:04:00,
2013-02-16 08:10:00,0.0,0.0,29.93,NNW,337,2.0,5.0,0,0.00,,,0.00,VWS V14.01,2013-02-16 13:10:00,
2013-02-16 08:14:00,0.0,0.0,29.93,NNW,337,2.0,5.0,0,0.00,,,0.00,VWS V14.01,2013-02-16 13:14:00,
2013-02-16 08:20:00,0.0,0.0,29.93,NNW,337,3.0,4.0,0,0.00,,,0.00,VWS V14.01,2013-02-16 13:20:00,
2013-02-16 08:24:00,0.0,0.0,29.93,NNW,337,3.0,4.0,0,0.00,,,0.00,VWS V14.01,2013-02-16 13:24:00,
2013-02-16 08:30:00,0.0,0.0,29.93,NNW,337,1.0,5.0,0,0.00,,,0.00,VWS V14.01,2013-02-16 13:30:00,
2013-02-16 08:34:00,0.0,0.0,29.93,NNW,337,1.0,5.0,0,0.00,,,0.00,VWS V14.01,2013-02-16 13:34:00,
2013-02-16 08:40:00,0.0,0.0,29.93,NNW,337,2.0,6.0,0,0.00,,,0.00,VWS V14.01,2013-02-16 13:40:00,
2013-02-16 08:44:00,0.0,0.0,29.93,NNW,337,2.0,6.0,0,0.00,,,0.00,VWS V14.01,2013-02-16 13:44:00,
2013-02-16 08:50:00,0.0,0.0,29.93,NNW,337,3.0,7.0,0,0.00,,,0.00,VWS V14.01,2013-02-16 13:50:00,
2013-02-16 08:54:00,0.0,0.0,29.93,NNW,337,3.0,7.0,0,0.00,,,0.00,VWS V14.01,2013-02-16 13:54:00,
2013-02-16 09:00:00,0.0,0.0,29.94,NW,311,4.0,8.0,0,0.00,,,0.00,VWS V14.01,2013-02-16 14:00:00,
2013-02-16 09:04:00,0.0,0.0,29.94,NW,311,4.0,8.0,0,0.00,,,0.00,VWS V14.01,2013-02-16 14:04:00,
2013-02-16 09:10:00,0.0,0.0,29.94,NW,321,4.0,8.0,0,0.00,,,0.00,VWS V14.01,2013-02-16 14:10:00,
2013-02-16 09:14:00,0.0,0.0,29.94,NW,321,4.0,8.0,0,0.00,,,0.00,VWS V14.01,2013-02-16 14:14:00,
2013-02-16 09:20:00,0.0,0.0,29.94,NW,316,6.0,8.0,0,0.00,,,0.00,VWS V14.01,2013-02-16 14:20:00,
2013-02-16 09:24:00,0.0,0.0,29.94,NW,316,6.0,8.0,0,0.00,,,0.00,VWS V14.01,2013-02-16 14:24:00,
2013-02-16 09:30:00,0.0,0.0,29.94,NNW,328,4.0,8.0,0,0.00,,,0.00,VWS V14.01,2013-02-16 14:30:00,
2013-02-16 09:34:00,0.0,0.0,29.94,NNW,328,4.0,8.0,0,0.00,,,0.00,VWS V14.01,2013-02-16 14:34:00,
2013-02-16 09:40:00,0.0,0.0,29.94,NW,315,5.0,8.0,0,0.00,,,0.00,VWS V14.01,2013-02-16 14:40:00,
2013-02-16 09:44:00,0.0,0.0,29.94,NW,315,5.0,8.0,0,0.00,,,0.00,VWS V14.01,2013-02-16 14:44:00,
2013-02-16 09:50:00,0.0,0.0,29.94,WNW,295,6.0,10.0,0,0.00,,,0.00,VWS V14.01,2013-02-16 14:50:00,
2013-02-16 09:54:00,0.0,0.0,29.94,WNW,295,6.0,10.0,0,0.00,,,0.00,VWS V14.01,2013-02-16 14:54:00,
2013-02-16 10:00:00,0.0,0.0,29.94,NNW,344,7.0,9.0,0,0.00,,,0.00,VWS V14.01,2013-02-16 15:00:00,
2013-02-16 10:04:00,0.0,0.0,29.94,NNW,344,7.0,9.0,0,0.00,,,0.00,VWS V14.01,2013-02-16 15:04:00,
2013-02-16 10:10:00,0.0,0.0,29.94,NW,305,4.0,9.0,0,0.00,,,0.00,VWS V14.01,2013-02-16 15:10:00,
2013-02-16 10:14:00,0.0,0.0,29.94,NW,305,4.0,9.0,0,0.00,,,0.00,VWS V14.01,2013-02-16 15:14:00,
2013-02-16 10:20:00,0.0,0.0,29.95,West,261,5.0,11.0,0,0.00,,,0.00,VWS V14.01,2013-02-16 15:20:00,
2013-02-16 10:24:00,0.0,0.0,29.95,West,261,5.0,11.0,0,0.00,,,0.00,VWS V14.01,2013-02-16 15:24:00,
2013-02-16 10:30:00,0.0,0.0,29.95,West,270,6.0,15.0,0,0.00,,,0.00,VWS V14.01,2013-02-16 15:30:00,
2013-02-16 10:34:00,0.0,0.0,29.95,West,270,6.0,15.0,0,0.00,,,0.00,VWS V14.01,2013-02-16 15:34:00,
2013-02-16 10:40:00,0.0,0.0,29.95,NW,321,11.0,21.0,0,0.00,,,0.00,VWS V14.01,2013-02-16 15:40:00,
2013-02-16 10:44:00,0.0,0.0,29.95,NW,321,11.0,21.0,0,0.00,,,0.00,VWS V14.01,2013-02-16 15:44:00,
2013-02-16 10:50:00,0.0,0.0,29.95,WSW,247,6.0,17.0,0,0.00,,,0.00,VWS V14.01,2013-02-16 15:50:00,
2013-02-16 10:54:00,0.0,0.0,29.95,WSW,247,6.0,17.0,0,0.00,,,0.00,VWS V14.01,2013-02-16 15:54:00,
2013-02-16 11:00:00,0.0,0.0,29.95,WNW,289,13.0,19.0,0,0.00,,,0.00,VWS V14.01,2013-02-16 16:00:00,
2013-02-16 11:04:00,0.0,0.0,29.95,WNW,289,13.0,19.0,0,0.00,,,0.00,VWS V14.01,2013-02-16 16:04:00,
2013-02-16 11:10:00,0.0,0.0,29.95,WNW,284,15.0,17.0,0,0.00,,,0.00,VWS V14.01,2013-02-16 16:10:00,
2013-02-16 11:14:00,0.0,0.0,29.95,WNW,284,15.0,17.0,0,0.00,,,0.00,VWS V14.01,2013-02-16 16:14:00,
2013-02-16 11:20:00,0.0,0.0,29.95,West,274,6.0,26.0,0,0.00,,,0.00,VWS V14.01,2013-02-16 16:20:00,
2013-02-16 11:24:00,0.0,0.0,29.95,West,274,6.0,26.0,0,0.00,,,0.00,VWS V14.01,2013-02-16 16:24:00,
2013-02-16 11:30:00,0.0,0.0,29.95,WNW,296,14.0,21.0,0,0.00,,,0.00,VWS V14.01,2013-02-16 16:30:00,
2013-02-16 11:34:00,0.0,0.0,29.95,WNW,296,14.0,21.0,0,0.00,,,0.00,VWS V14.01,2013-02-16 16:34:00,
2013-02-16 11:40:00,0.0,0.0,29.95,NW,318,7.0,21.0,0,0.00,,,0.00,VWS V14.01,2013-02-16 16:40:00,
2013-02-16 11:44:00,0.0,0.0,29.95,NW,318,7.0,21.0,0,0.00,,,0.00,VWS V14.01,2013-02-16 16:44:00,
2013-02-16 11:50:00,0.0,0.0,29.95,NW,304,13.0,24.0,0,0.00,,,0.00,VWS V14.01,2013-02-16 16:50:00,
2013-02-16 11:54:00,0.0,0.0,29.95,NW,304,13.0,24.0,0,0.00,,,0.00,VWS V14.01,2013-02-16 16:54:00,
2013-02-16 12:00:00,0.0,0.0,29.94,West,267,12.0,23.0,0,0.00,,,0.00,VWS V14.01,2013-02-16 17:00:00,
2013-02-16 12:04:00,0.0,0.0,29.94,West,267,12.0,23.0,0,0.00,,,0.00,VWS V14.01,2013-02-16 17:04:00,
2013-02-16 12:10:00,0.0,0.0,29.94,WNW,292,14.0,20.0,0,0.00,,,0.00,VWS V14.01,2013-02-16 17:10:00,
2013-02-16 12:14:00,0.0,0.0,29.94,WNW,292,14.0,20.0,0,0.00,,,0.00,VWS V14.01,2013-02-16 17:14:00,
2013-02-16 12:20:00,0.0,0.0,29.93,West,260,12.0,21.0,0,0.00,,,0.00,VWS V14.01,2013-02-16 17:20:00,
2013-02-16 12:24:00,0.0,0.0,29.93,West,260,12.0,21.0,0,0.00,,,0.00,VWS V14.01,2013-02-16 17:24:00,
2013-02-16 12:30:00,0.0,0.0,29.92,West,270,13.0,21.0,0,0.00,,,0.00,VWS V14.01,2013-02-16 17:30:00,
2013-02-16 12:34:00,0.0,0.0,29.92,West,270,13.0,21.0,0,0.00,,,0.00,VWS V14.01,2013-02-16 17:34:00,
2013-02-16 12:40:00,0.0,0.0,29.92,WNW,290,13.0,23.0,0,0.00,,,0.00,VWS V14.01,2013-02-16 17:40:00,
2013-02-16 12:44:00,0.0,0.0,29.92,WNW,290,13.0,23.0,0,0.00,,,0.00,VWS V14.01,2013-02-16 17:44:00,
2013-02-16 12:50:00,0.0,0.0,29.92,WNW,296,9.0,21.0,0,0.00,,,0.00,VWS V14.01,2013-02-16 17:50:00,
2013-02-16 12:54:00,0.0,0.0,29.92,WNW,296,9.0,21.0,0,0.00,,,0.00,VWS V14.01,2013-02-16 17:54:00,
2013-02-16 13:00:00,0.0,0.0,29.91,WNW,294,19.0,22.0,0,0.00,,,0.00,VWS V14.01,2013-02-16 18:00:00,
2013-02-16 13:04:00,0.0,0.0,29.91,WNW,294,19.0,22.0,0,0.00,,,0.00,VWS V14.01,2013-02-16 18:04:00,
2013-02-16 13:10:00,0.0,0.0,29.91,West,281,16.0,23.0,0,0.00,,,0.00,VWS V14.01,2013-02-16 18:10:00,
2013-02-16 13:14:00,0.0,0.0,29.91,West,281,16.0,23.0,0,0.00,,,0.00,VWS V14.01,2013-02-16 18:14:00,
2013-02-16 13:20:00,0.0,0.0,29.91,WNW,290,21.0,25.0,0,0.00,,,0.00,VWS V14.01,2013-02-16 18:20:00,
2013-02-16 13:24:00,0.0,0.0,29.91,WNW,290,21.0,25.0,0,0.00,,,0.00,VWS V14.01,2013-02-16 18:24:00,
2013-02-16 13:30:00,0.0,0.0,29.90,West,273,11.0,26.0,0,0.00,,,0.00,VWS V14.01,2013-02-16 18:30:00,
2013-02-16 13:34:00,0.0,0.0,29.90,West,273,11.0,26.0,0,0.00,,,0.00,VWS V14.01,2013-02-16 18:34:00,
2013-02-16 13:40:00,0.0,0.0,29.90,WNW,282,11.0,22.0,0,0.00,,,0.00,VWS V14.01,2013-02-16 18:40:00,
2013-02-16 13:44:00,0.0,0.0,29.90,WNW,282,11.0,22.0,0,0.00,,,0.00,VWS V14.01,2013-02-16 18:44:00,
2013-02-16 13:50:00,0.0,0.0,29.90,West,276,18.0,24.0,0,0.00,,,0.00,VWS V14.01,2013-02-16 18:50:00,
2013-02-16 13:54:00,0.0,0.0,29.90,West,276,18.0,24.0,0,0.00,,,0.00,VWS V14.01,2013-02-16 18:54:00,
2013-02-16 14:00:00,0.0,0.0,29.90,WNW,302,12.0,25.0,0,0.00,,,0.00,VWS V14.01,2013-02-16 19:00:00,
2013-02-16 14:04:00,0.0,0.0,29.90,WNW,302,12.0,25.0,0,0.00,,,0.00,VWS V14.01,2013-02-16 19:04:00,
2013-02-16 14:10:00,0.0,0.0,29.90,WNW,286,10.0,19.0,0,0.00,,,0.00,VWS V14.01,2013-02-16 19:10:00,
2013-02-16 14:14:00,0.0,0.0,29.90,WNW,286,10.0,19.0,0,0.00,,,0.00,VWS V14.01,2013-02-16 19:14:00,
2013-02-16 14:20:00,0.0,0.0,29.91,North,355,16.0,30.0,0,0.00,,,0.00,VWS V14.01,2013-02-16 19:20:00,
2013-02-16 14:24:00,0.0,0.0,29.91,North,355,16.0,30.0,0,0.00,,,0.00,VWS V14.01,2013-02-16 19:24:00,
2013-02-16 14:30:00,0.0,0.0,29.91,West,281,14.0,29.0,0,0.00,,,0.00,VWS V14.01,2013-02-16 19:30:00,
2013-02-16 14:34:00,0.0,0.0,29.91,West,281,14.0,29.0,0,0.00,,,0.00,VWS V14.01,2013-02-16 19:34:00,
2013-02-16 14:40:00,0.0,0.0,29.91,NW,309,14.0,28.0,0,0.00,,,0.00,VWS V14.01,2013-02-16 19:40:00,
2013-02-16 14:44:00,0.0,0.0,29.91,NW,309,14.0,28.0,0,0.00,,,0.00,VWS V14.01,2013-02-16 19:44:00,
2013-02-16 14:50:00,0.0,0.0,29.91,NW,317,15.0,22.0,0,0.00,,,0.00,VWS V14.01,2013-02-16 19:50:00,
2013-02-16 14:54:00,0.0,0.0,29.91,NW,317,15.0,22.0,0,0.00,,,0.00,VWS V14.01,2013-02-16 19:54:00,
2013-02-16 15:00:00,0.0,0.0,29.91,WNW,302,9.0,27.0,0,0.00,,,0.00,VWS V14.01,2013-02-16 20:00:00,
2013-02-16 15:04:00,0.0,0.0,29.91,WNW,302,9.0,27.0,0,0.00,,,0.00,VWS V14.01,2013-02-16 20:04:00,
2013-02-16 15:10:00,0.0,0.0,29.92,WNW,288,18.0,26.0,0,0.00,,,0.00,VWS V14.01,2013-02-16 20:10:00,
2013-02-16 15:14:00,0.0,0.0,29.92,WNW,288,18.0,26.0,0,0.00,,,0.00,VWS V14.01,2013-02-16 20:14:00,
2013-02-16 15:20:00,0.0,0.0,29.92,WNW,290,13.0,30.0,0,0.00,,,0.00,VWS V14.01,2013-02-16 20:20:00,
2013-02-16 15:24:00,0.0,0.0,29.92,WNW,290,13.0,30.0,0,0.00,,,0.00,VWS V14.01,2013-02-16 20:24:00,
2013-02-16 15:30:00,0.0,0.0,29.92,NNW,330,8.0,25.0,0,0.00,,,0.00,VWS V14.01,2013-02-16 20:30:00,
2013-02-16 15:34:00,0.0,0.0,29.92,NNW,330,8.0,25.0,0,0.00,,,0.00,VWS V14.01,2013-02-16 20:34:00,
2013-02-16 15:40:00,0.0,0.0,29.92,WNW,294,14.0,21.0,0,0.00,,,0.00,VWS V14.01,2013-02-16 20:40:00,
2013-02-16 15:44:00,0.0,0.0,29.92,WNW,294,14.0,21.0,0,0.00,,,0.00,VWS V14.01,2013-02-16 20:44:00,
2013-02-16 15:50:00,0.0,0.0,29.93,West,264,8.0,21.0,0,0.00,,,0.00,VWS V14.01,2013-02-16 20:50:00,
2013-02-16 15:54:00,0.0,0.0,29.93,West,264,8.0,21.0,0,0.00,,,0.00,VWS V14.01,2013-02-16 20:54:00,
2013-02-16 16:00:00,0.0,0.0,29.94,WNW,300,11.0,23.0,0,0.00,,,0.00,VWS V14.01,2013-02-16 21:00:00,
2013-02-16 16:04:00,0.0,0.0,29.94,WNW,300,11.0,23.0,0,0.00,,,0.00,VWS V14.01,2013-02-16 21:04:00,
2013-02-16 16:10:00,0.0,0.0,29.94,WNW,301,13.0,33.0,0,0.00,,,0.00,VWS V14.01,2013-02-16 21:10:00,
2013-02-16 16:14:00,0.0,0.0,29.94,WNW,301,13.0,33.0,0,0.00,,,0.00,VWS V14.01,2013-02-16 21:14:00,
2013-02-16 16:20:00,0.0,0.0,29.95,WNW,285,12.0,24.0,0,0.00,,,0.00,VWS V14.01,2013-02-16 21:20:00,
2013-02-16 16:24:00,0.0,0.0,29.95,WNW,285,12.0,24.0,0,0.00,,,0.00,VWS V14.01,2013-02-16 21:24:00,
2013-02-16 16:30:00,0.0,0.0,29.95,NW,325,19.0,34.0,0,0.00,,,0.00,VWS V14.01,2013-02-16 21:30:00,
2013-02-16 16:34:00,0.0,0.0,29.95,NW,325,19.0,34.0,0,0.00,,,0.00,VWS V14.01,2013-02-16 21:34:00,
2013-02-16 16:40:00,0.0,0.0,29.95,NNW,343,15.0,25.0,0,0.00,,,0.00,VWS V14.01,2013-02-16 21:40:00,
2013-02-16 16:44:00,0.0,0.0,29.95,NNW,343,15.0,25.0,0,0.00,,,0.00,VWS V14.01,2013-02-16 21:44:00,
2013-02-16 16:50:00,0.0,0.0,29.96,NNW,338,12.0,30.0,0,0.00,,,0.00,VWS V14.01,2013-02-16 21:50:00,
2013-02-16 16:54:00,0.0,0.0,29.96,NNW,338,12.0,30.0,0,0.00,,,0.00,VWS V14.01,2013-02-16 21:54:00,
2013-02-16 17:00:00,0.0,0.0,29.95,NNW,344,17.0,22.0,0,0.00,,,0.00,VWS V14.01,2013-02-16 22:00:00,
2013-02-16 17:04:00,0.0,0.0,29.95,NNW,344,17.0,22.0,0,0.00,,,0.00,VWS V14.01,2013-02-16 22:04:00,
2013-02-16 17:10:00,0.0,0.0,29.96,NW,311,9.0,25.0,0,0.00,,,0.00,VWS V14.01,2013-02-16 22:10:00,
2013-02-16 17:14:00,0.0,0.0,29.96,NW,311,9.0,25.0,0,0.00,,,0.00,VWS V14.01,2013-02-16 22:14:00,
2013-02-16 17:20:00,0.0,0.0,29.96,WNW,292,12.0,23.0,0,0.00,,,0.00,VWS V14.01,2013-02-16 22:20:00,
2013-02-16 17:24:00,0.0,0.0,29.96,WNW,292,12.0,23.0,0,0.00,,,0.00,VWS V14.01,2013-02-16 22:24:00,
2013-02-16 17:30:00,0.0,0.0,29.96,NW,312,5.0,21.0,0,0.00,,,0.00,VWS V14.01,2013-02-16 22:30:00,
2013-02-16 17:34:00,0.0,0.0,29.96,NW,312,5.0,21.0,0,0.00,,,0.00,VWS V14.01,2013-02-16 22:34:00,
2013-02-16 17:40:00,0.0,0.0,29.96,NW,308,14.0,18.0,0,0.00,,,0.00,VWS V14.01,2013-02-16 22:40:00,
2013-02-16 17:44:00,0.0,0.0,29.96,NW,308,14.0,18.0,0,0.00,,,0.00,VWS V14.01,2013-02-16 22:44:00,
2013-02-16 17:50:00,0.0,0.0,29.96,West,261,10.0,23.0,0,0.00,,,0.00,VWS V14.01,2013-02-16 22:50:00,
2013-02-16 17:54:00,0.0,0.0,29.96,West,261,10.0,23.0,0,0.00,,,0.00,VWS V14.01,2013-02-16 22:54:00,
2013-02-16 18:00:00,0.0,0.0,29.96,NW,319,6.0,18.0,0,0.00,,,0.00,VWS V14.01,2013-02-16 23:00:00,
2013-02-16 18:04:00,0.0,0.0,29.96,NW,319,6.0,18.0,0,0.00,,,0.00,VWS V14.01,2013-02-16 23:04:00,
2013-02-16 18:10:00,0.0,0.0,29.97,WNW,286,11.0,28.0,0,0.00,,,0.00,VWS V14.01,2013-02-16 23:10:00,
2013-02-16 18:14:00,0.0,0.0,29.97,WNW,286,11.0,28.0,0,0.00,,,0.00,VWS V14.01,2013-02-16 23:14:00,
2013-02-16 18:20:00,0.0,0.0,29.98,WNW,296,9.0,22.0,0,0.00,,,0.00,VWS V14.01,2013-02-16 23:20:00,
2013-02-16 18:24:00,0.0,0.0,29.98,WNW,296,9.0,22.0,0,0.00,,,0.00,VWS V14.01,2013-02-16 23:24:00,
2013-02-16 18:30:00,0.0,0.0,29.98,WNW,300,8.0,16.0,0,0.00,,,0.00,VWS V14.01,2013-02-16 23:30:00,
2013-02-16 18:34:00,0.0,0.0,29.98,WNW,300,8.0,16.0,0,0.00,,,0.00,VWS V14.01,2013-02-16 23:34:00,
2013-02-16 18:40:00,0.0,0.0,29.99,WNW,298,17.0,18.0,0,0.00,,,0.00,VWS V14.01,2013-02-16 23:40:00,
2013-02-16 18:44:00,0.0,0.0,29.99,WNW,298,17.0,18.0,0,0.00,,,0.00,VWS V14.01,2013-02-16 23:44:00,
2013-02-16 18:50:00,0.0,0.0,29.99,WNW,285,8.0,22.0,0,0.00,,,0.00,VWS V14.01,2013-02-16 23:50:00,
2013-02-16 18:54:00,0.0,0.0,29.99,WNW,285,8.0,22.0,0,0.00,,,0.00,VWS V14.01,2013-02-16 23:54:00,
2013-02-16 19:00:00,0.0,0.0,29.99,WNW,294,4.0,16.0,0,0.00,,,0.00,VWS V14.01,2013-02-17 00:00:00,
2013-02-16 19:04:00,0.0,0.0,29.99,WNW,294,4.0,16.0,0,0.00,,,0.00,VWS V14.01,2013-02-17 00:04:00,
2013-02-16 19:10:00,0.0,0.0,30.00,WNW,301,3.0,19.0,0,0.00,,,0.00,VWS V14.01,2013-02-17 00:10:00,
2013-02-16 19:14:00,0.0,0.0,30.00,WNW,301,3.0,19.0,0,0.00,,,0.00,VWS V14.01,2013-02-17 00:14:00,
2013-02-16 19:20:00,0.0,0.0,30.00,NW,304,7.0,13.0,0,0.00,,,0.00,VWS V14.01,2013-02-17 00:20:00,
2013-02-16 19:24:00,0.0,0.0,30.00,NW,304,7.0,13.0,0,0.00,,,0.00,VWS V14.01,2013-02-17 00:24:00,
2013-02-16 19:30:00,0.0,0.0,30.00,NW,306,7.0,12.0,0,0.00,,,0.00,VWS V14.01,2013-02-17 00:30:00,
2013-02-16 19:34:00,0.0,0.0,30.00,NW,306,7.0,12.0,0,0.00,,,0.00,VWS V14.01,2013-02-17 00:34:00,
2013-02-16 19:40:00,0.0,0.0,30.00,NW,307,5.0,18.0,0,0.00,,,0.00,VWS V14.01,2013-02-17 00:40:00,
2013-02-16 19:44:00,0.0,0.0,30.00,NW,307,5.0,18.0,0,0.00,,,0.00,VWS V14.01,2013-02-17 00:44:00,
2013-02-16 19:50:00,0.0,0.0,30.01,NW,326,6.0,17.0,0,0.00,,,0.00,VWS V14.01,2013-02-17 00:50:00,
2013-02-16 19:54:00,0.0,0.0,30.01,NW,326,6.0,17.0,0,0.00,,,0.00,VWS V14.01,2013-02-17 00:54:00,
2013-02-16 20:00:00,0.0,0.0,30.01,NW,305,4.0,12.0,0,0.00,,,0.00,VWS V14.01,2013-02-17 01:00:00,
2013-02-16 20:04:00,0.0,0.0,30.01,NW,305,4.0,12.0,0,0.00,,,0.00,VWS V14.01,2013-02-17 01:04:00,
2013-02-16 20:10:00,0.0,0.0,30.02,WNW,301,6.0,11.0,0,0.00,,,0.00,VWS V14.01,2013-02-17 01:10:00,
2013-02-16 20:14:00,0.0,0.0,30.02,WNW,301,6.0,11.0,0,0.00,,,0.00,VWS V14.01,2013-02-17 01:14:00,
2013-02-16 20:20:00,0.0,0.0,30.02,WNW,296,3.0,13.0,0,0.00,,,0.00,VWS V14.01,2013-02-17 01:20:00,
2013-02-16 20:24:00,0.0,0.0,30.02,WNW,296,3.0,13.0,0,0.00,,,0.00,VWS V14.01,2013-02-17 01:24:00,
2013-02-16 20:30:00,0.0,0.0,30.02,WNW,287,7.0,14.0,0,0.00,,,0.00,VWS V14.01,2013-02-17 01:30:00,
2013-02-16 20:34:00,0.0,0.0,30.02,WNW,287,7.0,14.0,0,0.00,,,0.00,VWS V14.01,2013-02-17 01:34:00,
2013-02-16 20:40:00,0.0,0.0,30.02,WNW,293,5.0,10.0,0,0.00,,,0.00,VWS V14.01,2013-02-17 01:40:00,
2013-02-16 20:44:00,0.0,0.0,30.02,WNW,293,5.0,10.0,0,0.00,,,0.00,VWS V14.01,2013-02-17 01:44:00,
2013-02-16 20:50:00,0.0,0.0,30.03,WNW,296,4.0,12.0,0,0.00,,,0.00,VWS V14.01,2013-02-17 01:50:00,
2013-02-16 20:54:00,0.0,0.0,30.03,WNW,296,4.0,12.0,0,0.00,,,0.00,VWS V14.01,2013-02-17 01:54:00,
2013-02-16 21:00:00,0.0,0.0,30.03,NW,325,4.0,10.0,0,0.00,,,0.00,VWS V14.01,2013-02-17 02:00:00,
2013-02-16 21:04:00,0.0,0.0,30.03,NW,325,4.0,10.0,0,0.00,,,0.00,VWS V14.01,2013-02-17 02:04:00,
2013-02-16 21:10:00,0.0,0.0,30.03,West,280,4.0,11.0,0,0.00,,,0.00,VWS V14.01,2013-02-17 02:10:00,
2013-02-16 21:14:00,0.0,0.0,30.03,West,280,4.0,11.0,0,0.00,,,0.00,VWS V14.01,2013-02-17 02:14:00,
2013-02-16 21:20:00,0.0,0.0,30.04,WNW,302,8.0,18.0,0,0.00,,,0.00,VWS V14.01,2013-02-17 02:20:00,
2013-02-16 21:24:00,0.0,0.0,30.04,WNW,302,8.0,18.0,0,0.00,,,0.00,VWS V14.01,2013-02-17 02:24:00,
2013-02-16 21:30:00,0.0,0.0,30.04,WNW,302,11.0,14.0,0,0.00,,,0.00,VWS V14.01,2013-02-17 02:30:00,
2013-02-16 21:34:00,0.0,0.0,30.04,WNW,302,11.0,14.0,0,0.00,,,0.00,VWS V14.01,2013-02-17 02:34:00,
2013-02-16 21:40:00,0.0,0.0,30.05,WNW,299,7.0,17.0,0,0.00,,,0.00,VWS V14.01,2013-02-17 02:40:00,
2013-02-16 21:44:00,0.0,0.0,30.05,WNW,299,7.0,17.0,0,0.00,,,0.00,VWS V14.01,2013-02-17 02:44:00,
2013-02-16 21:50:00,0.0,0.0,30.05,WNW,299,5.0,18.0,0,0.00,,,0.00,VWS V14.01,2013-02-17 02:50:00,
2013-02-16 21:54:00,0.0,0.0,30.05,WNW,299,5.0,18.0,0,0.00,,,0.00,VWS V14.01,2013-02-17 02:54:00,
2013-02-16 22:00:00,0.0,0.0,30.06,WNW,303,17.0,17.0,0,0.00,,,0.00,VWS V14.01,2013-02-17 03:00:00,
2013-02-16 22:04:00,0.0,0.0,30.06,WNW,303,17.0,17.0,0,0.00,,,0.00,VWS V14.01,2013-02-17 03:04:00,
2013-02-16 22:10:00,0.0,0.0,30.05,West,281,9.0,19.0,0,0.00,,,0.00,VWS V14.01,2013-02-17 03:10:00,
2013-02-16 22:14:00,0.0,0.0,30.05,West,281,9.0,19.0,0,0.00,,,0.00,VWS V14.01,2013-02-17 03:14:00,
2013-02-16 22:20:00,0.0,0.0,30.06,NW,314,10.0,18.0,0,0.00,,,0.00,VWS V14.01,2013-02-17 03:20:00,
2013-02-16 22:24:00,0.0,0.0,30.06,NW,314,10.0,18.0,0,0.00,,,0.00,VWS V14.01,2013-02-17 03:24:00,
2013-02-16 22:30:00,0.0,0.0,30.06,NW,306,10.0,17.0,0,0.00,,,0.00,VWS V14.01,2013-02-17 03:30:00,
2013-02-16 22:34:00,0.0,0.0,30.06,NW,306,10.0,17.0,0,0.00,,,0.00,VWS V14.01,2013-02-17 03:34:00,
2013-02-16 22:40:00,0.0,0.0,30.06,West,281,3.0,24.0,0,0.00,,,0.00,VWS V14.01,2013-02-17 03:40:00,
2013-02-16 22:44:00,0.0,0.0,30.06,West,281,3.0,24.0,0,0.00,,,0.00,VWS V14.01,2013-02-17 03:44:00,
2013-02-16 22:50:00,0.0,0.0,30.06,WNW,303,4.0,14.0,0,0.00,,,0.00,VWS V14.01,2013-02-17 03:50:00,
2013-02-16 22:54:00,0.0,0.0,30.06,WNW,303,4.0,14.0,0,0.00,,,0.00,VWS V14.01,2013-02-17 03:54:00,
2013-02-16 23:00:00,0.0,0.0,30.07,WNW,302,5.0,21.0,0,0.00,,,0.00,VWS V14.01,2013-02-17 04:00:00,
2013-02-16 23:04:00,0.0,0.0,30.07,WNW,302,5.0,21.0,0,0.00,,,0.00,VWS V14.01,2013-02-17 04:04:00,
2013-02-16 23:10:00,0.0,0.0,30.07,NNW,342,12.0,19.0,0,0.00,,,0.00,VWS V14.01,2013-02-17 04:10:00,
2013-02-16 23:14:00,0.0,0.0,30.07,NNW,342,12.0,19.0,0,0.00,,,0.00,VWS V14.01,2013-02-17 04:14:00,
2013-02-16 23:20:00,0.0,0.0,30.08,NNW,338,13.0,23.0,0,0.00,,,0.00,VWS V14.01,2013-02-17 04:20:00,
2013-02-16 23:24:00,0.0,0.0,30.08,NNW,338,13.0,23.0,0,0.00,,,0.00,VWS V14.01,2013-02-17 04:24:00,
2013-02-16 23:30:00,0.0,0.0,30.09,NNW,331,14.0,25.0,0,0.00,,,0.00,VWS V14.01,2013-02-17 04:30:00,
2013-02-16 23:34:00,0.0,0.0,30.09,NNW,331,14.0,25.0,0,0.00,,,0.00,VWS V14.01,2013-02-17 04:34:00,
2013-02-16 23:40:00,0.0,0.0,30.10,NW,325,16.0,21.0,0,0.00,,,0.00,VWS V14.01,2013-02-17 04:40:00,
2013-02-16 23:44:00,0.0,0.0,30.10,NW,325,16.0,21.0,0,0.00,,,0.00,VWS V14.01,2013-02-17 04:44:00,
2013-02-16 23:50:00,0.0,0.0,30.10,NNE,18,8.0,19.0,0,0.00,,,0.00,VWS V14.01,2013-02-17 04:50:00,
2013-02-16 23:54:00,0.0,0.0,30.10,NNE,18,8.0,19.0,0,0.00,,,0.00,VWS V14.01,2013-02-17 04:54:00,